Flight Track Log - Related Links

Times and Time Zones

All times are in EDT time to prevent confusion due to time zone crossing. See the RPA3228 flight status page for this flight to view local times or setup timezone preferences in your user account.

Time Position Orientation Groundspeed Altitude Reporting Facility
EDT Latitude Longitude Course Direction KTS MPH feet Rate Location/Type
Fri 10:38:19 AM 38.7733 -77.0350 38° Northeast 155 178 3,100  Level Washington Center
Fri 10:39:00 AM 38.9648 -76.6888 67° East  Level FlightAware Approximate
Fri 10:39:19 AM 38.7661 -76.9522 96° East 178 205 5,700  Level Washington Center
Fri 10:40:00 AM 39.0121 -76.5757 57° Northeast  Level FlightAware Approximate
Fri 10:40:19 AM 38.8500 -76.9003 26° Northeast 176 203 9,200  Level Washington Center
Fri 10:41:00 AM 39.0560 -76.4599 63° Northeast  Level FlightAware Approximate
Fri 10:41:19 AM 38.9400 -76.8514 23° Northeast 272 313 11,200  Level Washington Center
Fri 10:42:00 AM 39.1039 -76.3465 61° Northeast  Level FlightAware Approximate
Fri 10:42:19 AM 39.0325 -76.7861 29° Northeast 325 374 14,200  Level Washington Center
Fri 10:43:00 AM 39.1366 -76.2301 38° Northeast  Level FlightAware Approximate
Fri 10:43:19 AM 39.0628 -76.6608 73° East 330 380 16,700  Level Washington Center
Fri 10:44:19 AM 39.0222 -76.5400 113° Southeast 300 345 19,000 1,450 Climbing Washington Center
Fri 10:45:19 AM 39.0086 -76.4169 98° East 320 368 19,600 1,450 Climbing Washington Center
Fri 10:46:19 AM 39.0467 -76.2919 69° East 343 395 21,900 1,700 Climbing Washington Center
Fri 10:47:19 AM 39.1039 -76.1453 63° Northeast 384 442 23,000 550 Climbing Washington Center
Fri 10:48:19 AM 39.1503 -76.0064 67° East 392 451 23,000  Level Washington Center
Fri 10:49:19 AM 39.2047 -75.8700 63° Northeast 412 474 23,000  Level Washington Center
Fri 10:50:19 AM 39.2864 -75.7606 46° Northeast 421 484 23,000 100 Level Washington Center
Fri 10:51:19 AM 39.3697 -75.6506 46° Northeast 421 484 23,200 800 Climbing Washington Center
Fri 10:52:19 AM 39.4572 -75.5378 45° Northeast 421 484 24,600 1,517 Climbing Washington Center
Fri 10:54:13 AM 39.6189 -75.3308 45° Northeast 434 499 27,600 1,509 Climbing New York Center
Fri 10:55:10 AM 39.7047 -75.2122 47° Northeast 439 505 28,900 718 Climbing New York Center
Fri 10:56:10 AM 39.7819 -75.0983 49° Northeast 453 521 29,000 50 Climbing New York Center
Fri 10:57:11 AM 39.8656 -74.9764 48° Northeast 453 521 29,000  Level New York Center
Fri 10:58:11 AM 39.9531 -74.8572 46° Northeast 453 521 29,000  Level New York Center
Fri 10:59:12 AM 40.0533 -74.7300 44° Northeast 453 521 29,000  Level New York Center
Fri 11:00:12 AM 40.1717 -74.6797 18° North 439 505 29,000  Level New York Center
Fri 11:01:12 AM 40.2814 -74.6425 15° North 439 505 29,000  Level New York Center
Fri 11:02:10 AM 40.4014 -74.6028 14° North 439 505 29,000  Level New York Center
Fri 11:03:11 AM 40.5236 -74.5606 15° North 439 505 29,000  Level New York Center
Fri 11:04:12 AM 40.6436 -74.5236 13° North 439 505 29,000  Level New York Center
Fri 11:06:37 AM 40.9533 -74.4189 14° North 437 503 29,000  Level Boston Center
Fri 11:07:37 AM 41.0769 -74.3786 14° North 448 516 29,000  Level Boston Center
Fri 11:08:38 AM 41.2069 -74.3328 15° North 464 534 29,000  Level Boston Center
Fri 11:09:37 AM 41.3411 -74.2842 15° North 481 554 29,000  Level Boston Center
Fri 11:10:37 AM 41.4775 -74.2383 14° North 487 560 29,000  Level Boston Center
Fri 11:11:38 AM 41.6156 -74.1950 13° North 494 568 29,000  Level Boston Center
Fri 11:12:38 AM 41.7497 -74.1458 15° North 494 568 29,000  Level Boston Center
Fri 11:13:39 AM 41.8692 -74.1072 14° North 494 568 29,000  Level Boston Center
Fri 11:14:37 AM 42.0053 -74.0606 14° North 494 568 29,000  Level Boston Center
Fri 11:15:38 AM 42.1394 -74.0108 15° North 494 568 29,000  Level Boston Center
Fri 11:16:39 AM 42.2608 -73.9661 15° North 474 545 29,000  Level Boston Center
Fri 11:17:39 AM 42.3803 -73.9269 14° North 448 516 29,000  Level Boston Center
Fri 11:18:36 AM 42.4767 -73.8897 16° North 448 516 29,000  Level Boston Center
Fri 11:19:37 AM 42.6317 -73.8314 15° North 448 516 29,000  Level Boston Center
Fri 11:20:37 AM 42.7550 -73.7889 14° North 441 507 29,000  Level Boston Center
Fri 11:21:38 AM 42.8806 -73.7464 14° North 446 513 29,000  Level Boston Center
Fri 11:22:36 AM 43.0042 -73.6978 16° North 451 519 29,000 -950 Level Boston Center
Fri 11:23:38 AM 43.1256 -73.6547 15° North 456 525 27,100 -2,000 Descending Boston Center
Fri 11:24:39 AM 43.2342 -73.6142 15° North 451 519 24,900 -1,576 Descending Boston Center
Fri 11:25:36 AM 43.3514 -73.5708 15° North 446 513 24,000 -610 Descending Boston Center
Fri 11:26:37 AM 43.4728 -73.5244 15° North 446 513 23,700 -1,400 Descending Boston Center
Fri 11:27:36 AM 43.5919 -73.4836 14° North 446 513 21,200 -2,550 Descending Boston Center
Fri 11:28:37 AM 43.7069 -73.4425 14° North 434 499 18,600 -2,579 Descending Boston Center
Fri 11:29:37 AM 43.8178 -73.4011 15° North 419 482 16,000 -2,479 Descending Boston Center
Fri 11:30:38 AM 43.9242 -73.3625 15° North 399 459 13,600 -2,380 Descending Boston Center
Fri 11:31:38 AM 44.0308 -73.3208 16° North 393 452 11,200 -1,736 Descending Boston Center
Fri 11:32:39 AM 44.1269 -73.2903 13° North 375 432 10,100 -1,636 Descending Boston Center
Fri 11:33:39 AM 44.2267 -73.3092 352° North 329 379 7,900 -1,846 Descending Boston Center
Fri 11:34:36 AM 44.3142 -73.3250 353° North 324 373 6,500 -1,627 Descending Boston Center
Fri 11:35:37 AM 44.4017 -73.3350 355° North 319 367 4,700 -1,686 Descending Boston Center
Fri 11:36:37 AM 44.4869 -73.3333 North 308 354 3,100 -1,328 Descending Boston Center
Fri 11:37:39 AM 44.5683 -73.3433 355° North 302 348 2,000 -550 Descending Boston Center
Fri 11:38:37 AM 44.5708 -73.2881 86° East 187 215 2,000  Level Boston Center
Fri 11:39:37 AM 44.5397 -73.2642 151° Southeast 87 100 2,000  Level Boston Center

Login

Don't have an account? Register now (free) for customized features, flight alerts, and more!